| time (UTC) | temp F | wind direction | speed MPH | gust MPH | rain 1hr in | rain 24hr in | rain mn in | humidity % | barometer mb |
| 20260505024410 | 72 | 202 | 1.0 | 5.0 | 0.00 | 0.00 | 0.00 | 56 | 1002.8 |
| 20260505023409 | 72 | 198 | 0.0 | 4.0 | 0.00 | 0.00 | 0.00 | 56 | 1002.7 |
| 20260505022909 | 72 | 0 | 0.0 | 4.0 | 0.00 | 0.00 | 0.00 | 56 | 1002.7 |
| 20260505021909 | 72 | 0 | 0.0 | 3.0 | 0.00 | 0.00 | 0.00 | 55 | 1002.6 |
| 20260505020410 | 72 | 0 | 0.0 | 3.0 | 0.00 | 0.00 | 0.00 | 55 | 1002.3 |
| 20260505014407 | 73 | 0 | 0.0 | 3.0 | 0.00 | 0.00 | 0.00 | 53 | 1002.1 |
| 20260505013907 | 73 | 0 | 0.0 | 3.0 | 0.00 | 0.00 | 0.00 | 53 | 1002.0 |
| 20260505013407 | 73 | 214 | 0.0 | 2.0 | 0.00 | 0.00 | 0.00 | 52 | 1002.0 |
| 20260505012409 | 73 | 0 | 0.0 | 3.0 | 0.00 | 0.00 | 0.00 | 52 | 1001.8 |
| 20260505011908 | 74 | 0 | 0.0 | 3.0 | 0.00 | 0.00 | 0.00 | 52 | 1001.8 |
| 20260505011409 | 74 | 203 | 0.0 | 3.0 | 0.00 | 0.00 | 0.00 | 52 | 1001.7 |
| 20260505010909 | 74 | 211 | 0.0 | 3.0 | 0.00 | 0.00 | 0.00 | 52 | 1001.7 |
| 20260505005909 | 75 | 0 | 0.0 | 3.0 | 0.00 | 0.00 | 0.00 | 51 | 1001.6 |
| 20260505005407 | 75 | 0 | 0.0 | 2.0 | 0.00 | 0.00 | 0.00 | 51 | 1001.6 |
| 20260505004908 | 76 | 0 | 0.0 | 3.0 | 0.00 | 0.00 | 0.00 | 52 | 1001.4 |
| 20260505003905 | 76 | 204 | 1.0 | 4.0 | 0.00 | 0.00 | 0.00 | 51 | 1001.4 |
| 20260505003405 | 76 | 0 | 1.0 | 4.0 | 0.00 | 0.00 | 0.00 | 50 | 1001.3 |
| 20260505002905 | 77 | 221 | 1.0 | 4.0 | 0.00 | 0.00 | 0.00 | 51 | 1001.3 |
| 20260505002405 | 77 | 0 | 0.0 | 4.0 | 0.00 | 0.00 | 0.00 | 50 | 1001.3 |
| 20260505001407 | 78 | 174 | 1.0 | 4.0 | 0.00 | 0.00 | 0.00 | 50 | 1001.3 |
| 20260505000905 | 78 | 0 | 1.0 | 4.0 | 0.00 | 0.00 | 0.00 | 48 | 1001.3 |
| 20260505000406 | 78 | 179 | 1.0 | 4.0 | 0.00 | 0.00 | 0.00 | 49 | 1001.3 |
| 20260504235905 | 78 | 0 | 1.0 | 3.0 | 0.00 | 0.00 | 0.00 | 48 | 1001.3 |
| 20260504235406 | 78 | 199 | 0.0 | 3.0 | 0.00 | 0.00 | 0.00 | 49 | 1001.4 |
| 20260504234407 | 79 | 208 | 0.0 | 3.0 | 0.00 | 0.00 | 0.00 | 47 | 1001.3 |
| 20260504233902 | 79 | 221 | 0.0 | 3.0 | 0.00 | 0.00 | 0.00 | 47 | 1001.3 |
| 20260504233400 | 79 | 201 | 1.0 | 3.0 | 0.00 | 0.00 | 0.00 | 46 | 1001.3 |
| 20260504232900 | 79 | 199 | 1.0 | 4.0 | 0.00 | 0.00 | 0.00 | 46 | 1001.3 |
| 20260504231900 | 80 | 191 | 1.0 | 6.0 | 0.00 | 0.00 | 0.00 | 44 | 1001.3 |
| 20260504230401 | 80 | 228 | 1.0 | 5.0 | 0.00 | 0.00 | 0.00 | 46 | 1001.4 |
| 20260504225359 | 80 | 250 | 2.0 | 7.0 | 0.00 | 0.00 | 0.00 | 47 | 1001.4 |
| 20260504224858 | 81 | 0 | 1.0 | 4.0 | 0.00 | 0.00 | 0.00 | 45 | 1001.3 |
| 20260504223858 | 81 | 258 | 2.0 | 5.0 | 0.00 | 0.00 | 0.00 | 45 | 1001.3 |
| 20260504223358 | 82 | 0 | 2.0 | 9.0 | 0.00 | 0.00 | 0.00 | 44 | 1001.3 |
| 20260504222855 | 82 | 289 | 3.0 | 9.0 | 0.00 | 0.00 | 0.00 | 43 | 1001.3 |
| 20260504222356 | 82 | 219 | 3.0 | 9.0 | 0.00 | 0.00 | 0.00 | 42 | 1001.3 |
| 20260504221855 | 82 | 231 | 2.0 | 7.0 | 0.00 | 0.00 | 0.00 | 40 | 1001.4 |
| 20260504220855 | 82 | 0 | 2.0 | 8.0 | 0.00 | 0.00 | 0.00 | 40 | 1001.4 |
| 20260504220354 | 82 | 303 | 3.0 | 7.0 | 0.00 | 0.00 | 0.00 | 41 | 1001.4 |
| 20260504215855 | 82 | 216 | 2.0 | 7.0 | 0.00 | 0.00 | 0.00 | 40 | 1001.6 |
| 20260504215355 | 83 | 263 | 1.0 | 7.0 | 0.00 | 0.00 | 0.00 | 40 | 1001.7 |
| 20260504214856 | 83 | 164 | 1.0 | 5.0 | 0.00 | 0.00 | 0.00 | 41 | 1001.7 |
| 20260504214355 | 83 | 0 | 1.0 | 5.0 | 0.00 | 0.00 | 0.00 | 40 | 1001.8 |
| 20260504213855 | 84 | 225 | 1.0 | 5.0 | 0.00 | 0.00 | 0.00 | 41 | 1001.8 |
| 20260504213356 | 84 | 0 | 1.0 | 5.0 | 0.00 | 0.00 | 0.00 | 40 | 1001.8 |
| 20260504212852 | 84 | 220 | 1.0 | 5.0 | 0.00 | 0.00 | 0.00 | 39 | 1001.8 |
| 20260504212353 | 85 | 0 | 1.0 | 5.0 | 0.00 | 0.00 | 0.00 | 40 | 1001.7 |
| 20260504211852 | 85 | 139 | 1.0 | 6.0 | 0.00 | 0.00 | 0.00 | 36 | 1001.7 |
| 20260504210346 | 86 | 275 | 1.0 | 5.0 | 0.00 | 0.00 | 0.00 | 35 | 1001.7 |
| 20260504205847 | 86 | 327 | 1.0 | 4.0 | 0.00 | 0.00 | 0.00 | 35 | 1001.8 |
| 20260504205348 | 87 | 162 | 1.0 | 4.0 | 0.00 | 0.00 | 0.00 | 35 | 1001.9 |
| 20260504204847 | 86 | 0 | 1.0 | 6.0 | 0.00 | 0.00 | 0.00 | 35 | 1001.9 |
| 20260504204348 | 86 | 223 | 2.0 | 7.0 | 0.00 | 0.00 | 0.00 | 37 | 1002.0 |
| 20260504203848 | 86 | 115 | 2.0 | 7.0 | 0.00 | 0.00 | 0.00 | 38 | 1002.1 |
| 20260504202347 | 86 | 28 | 1.0 | 8.0 | 0.00 | 0.00 | 0.00 | 38 | 1002.2 |
| 20260504201844 | 85 | 171 | 1.0 | 8.0 | 0.00 | 0.00 | 0.00 | 37 | 1002.3 |
| 20260504201342 | 85 | 85 | 2.0 | 6.0 | 0.00 | 0.00 | 0.00 | 38 | 1002.2 |
| 20260504200841 | 84 | 300 | 2.0 | 6.0 | 0.00 | 0.00 | 0.00 | 40 | 1002.2 |
| 20260504200342 | 84 | 196 | 2.0 | 6.0 | 0.00 | 0.00 | 0.00 | 42 | 1002.3 |
| 20260504195843 | 85 | 204 | 2.0 | 7.0 | 0.00 | 0.00 | 0.00 | 42 | 1002.4 |
| 20260504195339 | 85 | 215 | 2.0 | 7.0 | 0.00 | 0.00 | 0.00 | 38 | 1002.4 |
| 20260504194839 | 85 | 218 | 2.0 | 7.0 | 0.00 | 0.00 | 0.00 | 39 | 1002.3 |
| 20260504194340 | 85 | 215 | 1.0 | 6.0 | 0.00 | 0.00 | 0.00 | 39 | 1002.4 |
| 20260504193839 | 85 | 254 | 2.0 | 7.0 | 0.00 | 0.00 | 0.00 | 37 | 1002.4 |
| 20260504193340 | 85 | 0 | 2.0 | 7.0 | 0.00 | 0.00 | 0.00 | 41 | 1002.3 |
| 20260504192839 | 85 | 192 | 1.0 | 6.0 | 0.00 | 0.00 | 0.00 | 41 | 1002.2 |
| 20260504192341 | 84 | 309 | 2.0 | 7.0 | 0.00 | 0.00 | 0.00 | 42 | 1002.3 |
| 20260504191837 | 84 | 339 | 2.0 | 7.0 | 0.00 | 0.00 | 0.00 | 43 | 1002.3 |
| 20260504191335 | 83 | 322 | 2.0 | 6.0 | 0.00 | 0.00 | 0.00 | 40 | 1002.4 |
| 20260504190330 | 83 | 234 | 3.0 | 8.0 | 0.00 | 0.00 | 0.00 | 44 | 1002.4 |
| 20260504185828 | 83 | 346 | 2.0 | 7.0 | 0.00 | 0.00 | 0.00 | 45 | 1002.5 |
| 20260504185328 | 83 | 160 | 2.0 | 6.0 | 0.00 | 0.00 | 0.00 | 45 | 1002.5 |
| 20260504184829 | 83 | 42 | 1.0 | 6.0 | 0.00 | 0.00 | 0.00 | 43 | 1002.5 |
| 20260504184328 | 82 | 0 | 2.0 | 6.0 | 0.00 | 0.00 | 0.00 | 44 | 1002.5 |
| 20260504183825 | 82 | 292 | 2.0 | 8.0 | 0.00 | 0.00 | 0.00 | 43 | 1002.5 |
| 20260504183325 | 81 | 219 | 2.0 | 8.0 | 0.00 | 0.00 | 0.00 | 45 | 1002.6 |
| 20260504182825 | 81 | 0 | 2.0 | 7.0 | 0.00 | 0.00 | 0.00 | 45 | 1002.5 |
| 20260504182325 | 81 | 272 | 3.0 | 7.0 | 0.00 | 0.00 | 0.00 | 42 | 1002.7 |
| 20260504181826 | 82 | 205 | 2.0 | 7.0 | 0.00 | 0.00 | 0.00 | 44 | 1002.7 |
| 20260504181325 | 82 | 218 | 2.0 | 7.0 | 0.00 | 0.00 | 0.00 | 45 | 1002.6 |
| 20260504180826 | 82 | 215 | 2.0 | 6.0 | 0.00 | 0.00 | 0.00 | 45 | 1002.6 |
| 20260504180326 | 81 | 243 | 2.0 | 6.0 | 0.00 | 0.00 | 0.00 | 45 | 1002.8 |
| 20260504175825 | 81 | 202 | 2.0 | 6.0 | 0.00 | 0.00 | 0.00 | 46 | 1002.8 |
| 20260504175326 | 81 | 200 | 2.0 | 6.0 | 0.00 | 0.00 | 0.00 | 47 | 1002.8 |
| 20260504174825 | 80 | 0 | 2.0 | 6.0 | 0.00 | 0.00 | 0.00 | 44 | 1002.9 |
| 20260504174322 | 80 | 161 | 2.0 | 6.0 | 0.00 | 0.00 | 0.00 | 47 | 1002.9 |
| 20260504173324 | 79 | 0 | 2.0 | 7.0 | 0.00 | 0.00 | 0.00 | 46 | 1003.0 |
| 20260504172821 | 79 | 182 | 2.0 | 7.0 | 0.00 | 0.00 | 0.00 | 45 | 1003.0 |
| 20260504172321 | 79 | 183 | 2.0 | 7.0 | 0.00 | 0.00 | 0.00 | 45 | 1003.1 |
| 20260504171819 | 78 | 275 | 2.0 | 6.0 | 0.00 | 0.00 | 0.00 | 47 | 1003.1 |
| 20260504170820 | 78 | 254 | 2.0 | 7.0 | 0.00 | 0.00 | 0.00 | 48 | 1003.2 |
| 20260504170321 | 78 | 180 | 1.0 | 6.0 | 0.00 | 0.00 | 0.00 | 46 | 1003.2 |
| 20260504160312 | 74 | 139 | 3.0 | 8.0 | 0.00 | 0.00 | 0.00 | 50 | 1003.4 |
| 20260504150807 | 72 | 204 | 2.0 | 8.0 | 0.00 | 0.00 | 0.00 | 51 | 1003.4 |
| 20260504150308 | 71 | 213 | 2.0 | 8.0 | 0.00 | 0.00 | 0.00 | 52 | 1003.4 |
| 20260504141256 | 68 | 276 | 3.0 | 8.0 | 0.00 | 0.00 | 0.00 | 56 | 1003.5 |
| 20260504140752 | 67 | 255 | 2.0 | 4.0 | 0.00 | 0.00 | 0.00 | 57 | 1003.6 |
| 20260504140238 | 67 | 228 | 2.0 | 4.0 | 0.00 | 0.00 | 0.00 | 58 | 1003.6 |
| 20260504130707 | 63 | 221 | 2.0 | 6.0 | 0.00 | 0.00 | 0.00 | 59 | 1003.4 |
| 20260504120108 | 61 | 230 | 2.0 | 4.0 | 0.00 | 0.00 | 0.00 | 61 | 1003.5 |
| 20260504110555 | 58 | 0 | 0.0 | 3.0 | 0.00 | 0.00 | 0.00 | 66 | 1003.5 |
| 20260504100525 | 56 | 0 | 0.0 | 0.0 | 0.00 | 0.00 | 0.00 | 74 | 1004.4 |
| 20260504080942 | 61 | 0 | 0.0 | 3.0 | 0.00 | 0.00 | 0.00 | 59 | 1004.9 |
| 20260504080444 | 61 | 0 | 0.0 | 3.0 | 0.00 | 0.00 | 0.00 | 58 | 1005.1 |
| 20260504050416 | 65 | 132 | 2.0 | 5.0 | 0.00 | 0.00 | 0.00 | 58 | 1007.2 |
| 20260504045914 | 65 | 117 | 1.0 | 5.0 | 0.00 | 0.00 | 0.00 | 59 | 1007.2 |
| 20260504045413 | 65 | 0 | 2.0 | 5.0 | 0.00 | 0.00 | 0.00 | 58 | 1007.3 |
| 20260504044414 | 65 | 118 | 1.0 | 3.0 | 0.00 | 0.00 | 0.00 | 60 | 1007.6 |
| 20260504043914 | 66 | 18 | 0.0 | 3.0 | 0.00 | 0.00 | 0.00 | 59 | 1007.8 |
| 20260504043410 | 65 | 0 | 0.0 | 3.0 | 0.00 | 0.00 | 0.00 | 58 | 1007.7 |
| 20260504042910 | 65 | 0 | 1.0 | 3.0 | 0.00 | 0.00 | 0.00 | 60 | 1007.6 |
| 20260504041909 | 65 | 0 | 0.0 | 3.0 | 0.00 | 0.00 | 0.00 | 61 | 1007.6 |
| 20260504040910 | 64 | 0 | 0.0 | 3.0 | 0.00 | 0.00 | 0.00 | 62 | 1007.5 |
| 20260504040410 | 64 | 0 | 0.0 | 0.0 | 0.00 | 0.00 | 0.00 | 62 | 1007.5 |
| 20260504035910 | 64 | 0 | 0.0 | 0.0 | 0.00 | 0.00 | 0.00 | 62 | 1007.5 |
| 20260504035410 | 64 | 0 | 0.0 | 0.0 | 0.00 | 0.00 | 0.00 | 64 | 1007.6 |
| 20260504034411 | 64 | 0 | 0.0 | 2.0 | 0.00 | 0.00 | 0.00 | 60 | 1007.5 |
| 20260504033910 | 64 | 0 | 0.0 | 0.0 | 0.00 | 0.00 | 0.00 | 59 | 1007.5 |
| 20260504033411 | 64 | 0 | 0.0 | 0.0 | 0.00 | 0.00 | 0.00 | 59 | 1007.6 |
| 20260504032908 | 64 | 0 | 0.0 | 0.0 | 0.00 | 0.00 | 0.00 | 59 | 1007.7 |
| 20260504032408 | 64 | 0 | 0.0 | 0.0 | 0.00 | 0.00 | 0.00 | 57 | 1007.7 |
| 20260504031908 | 64 | 0 | 0.0 | 0.0 | 0.00 | 0.00 | 0.00 | 58 | 1007.7 |
| 20260504031408 | 64 | 0 | 0.0 | 0.0 | 0.00 | 0.00 | 0.00 | 59 | 1007.6 |
| 20260504030909 | 64 | 0 | 0.0 | 0.0 | 0.00 | 0.00 | 0.00 | 59 | 1007.6 |
| 20260504030407 | 65 | 0 | 0.0 | 0.0 | 0.00 | 0.00 | 0.00 | 60 | 1007.5 |
| 20260504025908 | 65 | 0 | 0.0 | 0.0 | 0.00 | 0.00 | 0.00 | 61 | 1007.5 |
| 20260504025408 | 66 | 0 | 0.0 | 2.0 | 0.00 | 0.00 | 0.00 | 58 | 1007.5 |